星链-33857 (STARLINK-33857)

导读

STARLINK-33857是美国太空探索技术公司(SpaceX)星链(Starlink)星座的一颗卫星,发射于2025年5月28日,星链计划旨在构建全球卫星互联网星座,为全球提供高速低延迟互联网接入服务。该卫星入轨后将和其他星链卫星组网,扩展星座覆盖范围,服务地面通信,提升全球网络服务的覆盖能力,是星链星座部署扩张的组成单元。

基本信息
目录编号:
64195
目录名称:
STARLINK-33857
国际标识:
2025-113AB
轨道中心:
EARTH
卫星名称:
星链-33857
卫星全名:
星链-33857 (STARLINK-33857)
卫星状态:
在轨 (已飞行464 天)
发射日期:
2025-05-28 UTC
国别 :
美国 (US)
星等 :
--
轨道信息
数据来源 国际轨道数据
星历时间: 2026-09-04T04:24:00+0800
13小时前
查看轨道信息
半长轴: 6848.893km
偏心率: 0.0002149
轨道倾角: 53.162°
近地点辐角 47.608°
升交点赤经 342.785°
平近点角 312.510°
近地点: 469.284km
远地点: 472.228km
周期: 94.014分钟
每日圈数: 15.316948
详细信息
固有亮度:
5
最大亮度:
2.5
卫星平台:
Starlink V1.0
覆盖范围:
全球
运营商:
太空探索技术公司
运营商所在国:
美国
制造商(研发单位):
太空探索技术公司
制造商所在国:
美国
使用方式:
暂无
卫星简介
Starlink 计划是 SpaceX 推出的全球卫星互联网项目,通过发射低轨道卫星,为全球尤其是偏远地区提供高速、低延迟的互联网服务。自 2019 年起,Starlink 已部署数千颗卫星,旨在缩小全球数字鸿沟,推动互联网普及。该项目还为军事、航空等行业提供通信支持,带来广泛经济效益。
2D轨道图
3D轨道图
轨道高度分析图
轨道倾角分析图
轨道综合分析图
查看轨道综合分析图
交会数据列表
事件ID 空间交会对象 最接近时刻(TCA) 交会距离 交会风险概率(CRP) 交会风险指数(CRI) 操作
CDM_260905-025306-264206-419521
2026-09-05T
02:53:35+0000
1.157 km
极远距离
8.490398E-6 低风险 0.54
CDM_260905-001704-811606-419521
2026-09-05T
00:17:54+0000
1.349 km
极远距离
5.911735E-6 低风险 0.5
CDM_260904-140704-811606-419521
2026-09-04T
14:07:11+0000
1.440 km
极远距离
4.767187E-6 低风险 0.49
CDM_260904-154104-811606-419521
2026-09-04T
15:41:08+0000
1.763 km
极远距离
2.576164E-6 低风险 0.43
CDM_260827-180306-419506-943521
2026-08-27T
18:03:23+0000
2.022 km
极远距离
2.292381E-6 低风险 0.42
CDM_260905-015104-811606-419521
2026-09-05T
01:51:52+0000
1.893 km
极远距离
2.120452E-6 低风险 0.42
CDM_260906-180104-791606-419521
2026-09-06T
18:01:39+0000
2.313 km
极远距离
1.805859E-6 低风险 0.4
CDM_260906-140604-791606-419521
2026-09-06T
14:06:49+0000
2.343 km
极远距离
1.759745E-6 低风险 0.4
CDM_260903-231106-419506-903221
2026-09-03T
23:11:23+0000
2.618 km
极远距离
1.503429E-6 低风险 0.39
CDM_260904-140506-419506-948521
2026-09-04T
14:05:27+0000
2.766 km
极远距离
1.170979E-6 低风险 0.36